Weather History for Carbondale, IL

Change the Weather History Date:

Wednesday, March 12, 2014

  Actual Average Record
Temperature  
Mean Temperature 48 °F -  
Max Temperature 64 °F 55 °F 84 °F (1967)
Min Temperature 32 °F 35 °F 10 °F (1998)
Degree Days  
Heating Degree Days 16    
Moisture  
Dew Point 34 °F    
Average Humidity 74    
Maximum Humidity 89    
Minimum Humidity 45    
Precipitation  
Precipitation 0.03 in - - ()
Sea Level Pressure  
Sea Level Pressure 29.80 in    
Wind  
Wind Speed 19 mph (NW)    
Max Wind Speed 28 mph    
Max Gust Speed 43 mph    
Visibility 10 miles    
Events Rain    
Averages and records for this station are not official NWS values.
T = Trace of Precipitation, MM = Missing Value Source: NWS Daily Summary

Daily Weather History Graph

Daily Weather History Graph

Search for Another Location

Airport:

Trip Planner

Search our weather history database for the weather conditions in past years. The results will help you decide how hot, cold, wet, or windy it might be!

Date:

Astronomy

Mar. 12, 2014 Rise Set
Actual Time 7:12 AM CDT 7:01 PM CDT
Civil Twilight 6:46 AM CDT 7:27 PM CDT
Nautical Twilight 6:16 AM CDT 7:58 PM CDT
Astronomical Twilight 5:45 AM CDT 8:28 PM CDT
Moon 3:34 PM CDT (3/12) 4:41 AM CDT (3/12)
Length of Visible Light 12h 41m
Length of Day
11h 48m
Waxing Gibbous, 85% of the Moon is Illuminated
Mar 12
Waxing Gibbous
Mar 16
Full
Mar 23
Last Quarter
Mar 30
New
Apr 7
First Quarter

Hourly Weather History & Observations

Time (CDT) Temp. Windchill Dew Point Humidity Pressure Visibility Wind Dir Wind Speed Gust Speed Precip Events Conditions
12:52 AM 64.0 °F - 55.9 °F 75% 29.44 in 10.0 mi SW 16.1 mph 26.5 mph N/A   Overcast
1:44 AM 62.1 °F - 55.9 °F 80% 29.43 in 10.0 mi SSW 18.4 mph 24.2 mph N/A   Overcast
1:52 AM 62.1 °F - 55.9 °F 80% 29.42 in 10.0 mi SSW 21.9 mph 28.8 mph N/A   Mostly Cloudy
2:19 AM 62.1 °F - 55.9 °F 80% 29.41 in 10.0 mi SSW 17.3 mph 26.5 mph N/A   Mostly Cloudy
2:44 AM 50.0 °F - 44.1 °F 80% 29.47 in 8.0 mi NW 24.2 mph 40.3 mph N/A   Overcast
2:52 AM 46.9 °F - 42.1 °F 83% 29.47 in 6.0 mi NW 27.6 mph 39.1 mph 0.00 in Rain Light Rain
2:59 AM 45.0 °F 36.4 °F 41.0 °F 86% 29.49 in 6.0 mi NW 23.0 mph 42.6 mph 0.00 in Rain Light Rain
3:14 AM 44.1 °F 35.4 °F 39.9 °F 85% 29.51 in 7.0 mi NW 21.9 mph 33.4 mph 0.01 in Rain Light Rain
3:31 AM 42.1 °F 33.6 °F 37.9 °F 85% 29.53 in 8.0 mi NW 18.4 mph 33.4 mph 0.02 in Rain Light Rain
3:52 AM 42.1 °F 33.1 °F 37.0 °F 82% 29.56 in 10.0 mi NW 20.7 mph 33.4 mph 0.02 in   Overcast
4:52 AM 41.0 °F 31.4 °F 36.0 °F 82% 29.61 in 10.0 mi NW 21.9 mph 39.1 mph 0.01 in   Overcast
5:52 AM 39.0 °F 28.5 °F 34.0 °F 82% 29.68 in 10.0 mi NW 23.0 mph 40.3 mph N/A   Overcast
6:06 AM 37.9 °F 27.3 °F 34.0 °F 86% 29.69 in 10.0 mi NNW 21.9 mph 35.7 mph N/A   Overcast
6:37 AM 37.0 °F 25.9 °F 34.0 °F 89% 29.72 in 8.0 mi NW 23.0 mph 35.7 mph 0.00 in Rain Light Rain
6:52 AM 37.0 °F 26.4 °F 34.0 °F 89% 29.72 in 10.0 mi NNW 20.7 mph 36.8 mph 0.00 in   Overcast
7:15 AM 37.9 °F 27.3 °F 33.1 °F 83% 29.74 in 10.0 mi NNW 21.9 mph 40.3 mph N/A   Overcast
7:52 AM 37.9 °F 27.9 °F 33.1 °F 83% 29.78 in 10.0 mi NW 19.6 mph 31.1 mph N/A   Overcast
8:52 AM 37.9 °F 26.8 °F 33.1 °F 83% 29.85 in 10.0 mi NW 24.2 mph 34.5 mph N/A   Overcast
9:52 AM 37.9 °F 28.5 °F 30.9 °F 76% 29.89 in 10.0 mi NNW 17.3 mph 33.4 mph N/A   Overcast
10:52 AM 37.9 °F 27.6 °F 30.9 °F 76% 29.93 in 10.0 mi NNW 20.7 mph 26.5 mph N/A   Overcast
11:52 AM 37.0 °F 27.4 °F 30.9 °F 79% 29.97 in 10.0 mi NNW 17.3 mph 29.9 mph N/A   Overcast
12:52 PM 37.9 °F 28.9 °F 30.0 °F 73% 29.99 in 10.0 mi NNW 16.1 mph 26.5 mph N/A   Overcast
1:52 PM 39.9 °F 31.4 °F 30.9 °F 70% 30.01 in 10.0 mi NNW 16.1 mph 26.5 mph N/A   Overcast
2:33 PM 39.9 °F 30.8 °F 28.9 °F 65% 30.02 in 10.0 mi NNW 18.4 mph 28.8 mph N/A   Mostly Cloudy
2:52 PM 42.1 °F 34.5 °F 28.9 °F 60% 30.02 in 10.0 mi NNW 15.0 mph 24.2 mph N/A   Mostly Cloudy
3:52 PM 43.0 °F 35.1 °F 28.0 °F 56% 30.03 in 10.0 mi NW 17.3 mph 23.0 mph N/A   Mostly Cloudy
4:52 PM 44.1 °F 37.4 °F 24.1 °F 45% 30.04 in 10.0 mi NNW 13.8 mph - N/A   Clear
5:52 PM 44.1 °F 36.5 °F 24.1 °F 45% 30.05 in 10.0 mi NW 17.3 mph 23.0 mph N/A   Overcast
6:52 PM 41.0 °F 34.3 °F 24.1 °F 51% 30.08 in 10.0 mi NNW 11.5 mph - N/A   Overcast
7:52 PM 37.9 °F 29.2 °F 25.0 °F 60% 30.12 in 10.0 mi NNW 15.0 mph - N/A   Partly Cloudy
8:52 PM 36.0 °F 29.0 °F 25.0 °F 64% 30.14 in 10.0 mi North 9.2 mph - N/A   Overcast
9:52 PM 35.1 °F 31.0 °F 25.0 °F 67% 30.15 in 10.0 mi North 4.6 mph - N/A   Overcast
10:52 PM 33.1 °F 28.7 °F 24.1 °F 70% 30.16 in 10.0 mi North 4.6 mph - N/A   Mostly Cloudy
11:52 PM 32.0 °F 28.7 °F 24.1 °F 73% 30.16 in 10.0 mi NNW 3.5 mph - N/A   Overcast